Time,TemperatureF,DewpointF,PressureIn,WindDirection,WindDirectionDegrees,WindSpeedMPH,WindSpeedGustMPH,Humidity,HourlyPrecipIn,Conditions,Clouds,dailyrainin,SoftwareType,DateUTC
2013-03-29 00:00:00,41.3,32.2,30.26,WSW,258,5.0,5.0,70,0.00,,,0.00,Wunderground v.1.15,2013-03-29 04:00:00,
2013-03-29 00:01:00,41.3,32.2,30.26,West,281,4.0,5.0,70,0.00,,,0.00,Wunderground v.1.15,2013-03-29 04:01:00,
2013-03-29 00:06:00,41.3,32.2,30.26,West,271,7.0,7.0,70,0.00,,,0.00,Wunderground v.1.15,2013-03-29 04:06:00,
2013-03-29 00:09:00,41.4,32.3,30.26,West,271,5.0,7.0,70,0.00,,,0.00,Wunderground v.1.15,2013-03-29 04:09:00,
2013-03-29 00:15:00,41.4,32.3,30.26,West,275,4.0,7.0,70,0.00,,,0.00,Wunderground v.1.15,2013-03-29 04:15:00,
2013-03-29 00:21:00,41.5,32.1,30.26,West,261,4.0,5.0,69,0.00,,,0.00,Wunderground v.1.15,2013-03-29 04:21:00,
2013-03-29 00:27:00,41.5,32.1,30.26,West,281,2.0,5.0,69,0.00,,,0.00,Wunderground v.1.15,2013-03-29 04:27:00,
2013-03-29 00:32:00,41.5,32.4,30.26,West,272,4.0,4.0,70,0.00,,,0.00,Wunderground v.1.15,2013-03-29 04:32:00,
2013-03-29 00:38:00,41.5,32.4,30.26,West,278,5.0,5.0,70,0.00,,,0.00,Wunderground v.1.15,2013-03-29 04:38:00,
2013-03-29 00:43:00,41.5,32.4,30.26,West,261,3.0,6.0,70,0.00,,,0.00,Wunderground v.1.15,2013-03-29 04:43:00,
2013-03-29 00:49:00,41.5,32.4,30.26,West,265,3.0,6.0,70,0.00,,,0.00,Wunderground v.1.15,2013-03-29 04:49:00,
2013-03-29 00:54:00,41.5,32.4,30.26,West,280,5.0,5.0,70,0.00,,,0.00,Wunderground v.1.15,2013-03-29 04:54:00,
2013-03-29 01:01:00,41.5,32.4,30.26,West,265,4.0,4.0,70,0.00,,,0.00,Wunderground v.1.15,2013-03-29 05:01:00,
2013-03-29 01:07:00,41.6,32.5,30.27,West,269,3.0,4.0,70,0.00,,,0.00,Wunderground v.1.15,2013-03-29 05:07:00,
2013-03-29 01:12:00,41.6,32.5,30.27,West,275,3.0,3.0,70,0.00,,,0.00,Wunderground v.1.15,2013-03-29 05:12:00,
2013-03-29 01:17:00,41.6,32.5,30.27,West,263,3.0,3.0,70,0.00,,,0.00,Wunderground v.1.15,2013-03-29 05:17:00,
2013-03-29 01:22:00,41.6,32.5,30.27,West,274,3.0,4.0,70,0.00,,,0.00,Wunderground v.1.15,2013-03-29 05:22:00,
2013-03-29 01:28:00,41.6,32.5,30.27,WSW,256,5.0,5.0,70,0.00,,,0.00,Wunderground v.1.15,2013-03-29 05:28:00,
2013-03-29 01:33:00,41.6,32.5,30.27,West,275,2.0,6.0,70,0.00,,,0.00,Wunderground v.1.15,2013-03-29 05:33:00,
2013-03-29 01:38:00,41.5,32.4,30.27,West,272,3.0,6.0,70,0.00,,,0.00,Wunderground v.1.15,2013-03-29 05:38:00,
2013-03-29 01:44:00,41.5,32.8,30.27,West,279,4.0,4.0,71,0.00,,,0.00,Wunderground v.1.15,2013-03-29 05:44:00,
2013-03-29 01:49:00,41.4,32.7,30.27,West,267,5.0,5.0,71,0.00,,,0.00,Wunderground v.1.15,2013-03-29 05:49:00,
2013-03-29 01:55:00,41.4,32.7,30.27,West,267,4.0,4.0,71,0.00,,,0.00,Wunderground v.1.15,2013-03-29 05:55:00,
2013-03-29 02:00:00,41.3,32.6,30.27,West,277,1.0,2.0,71,0.00,,,0.00,Wunderground v.1.15,2013-03-29 06:00:00,
2013-03-29 02:05:00,41.3,32.6,30.27,West,277,2.0,4.0,71,0.00,,,0.00,Wunderground v.1.15,2013-03-29 06:05:00,
2013-03-29 02:10:00,41.3,32.6,30.27,West,277,2.0,2.0,71,0.00,,,0.00,Wunderground v.1.15,2013-03-29 06:10:00,
2013-03-29 02:15:00,41.2,32.5,30.27,West,277,2.0,3.0,71,0.00,,,0.00,Wunderground v.1.15,2013-03-29 06:15:00,
2013-03-29 02:20:00,41.1,32.8,30.27,West,277,3.0,3.0,72,0.00,,,0.00,Wunderground v.1.15,2013-03-29 06:20:00,
2013-03-29 02:25:00,41.2,32.5,30.27,West,273,1.0,5.0,71,0.00,,,0.00,Wunderground v.1.15,2013-03-29 06:25:00,
2013-03-29 02:30:00,41.2,32.9,30.27,West,277,4.0,4.0,72,0.00,,,0.00,Wunderground v.1.15,2013-03-29 06:30:00,
2013-03-29 02:35:00,41.2,32.5,30.27,WSW,254,4.0,4.0,71,0.00,,,0.00,Wunderground v.1.15,2013-03-29 06:35:00,
2013-03-29 02:40:00,41.3,33.0,30.27,West,269,3.0,3.0,72,0.00,,,0.00,Wunderground v.1.15,2013-03-29 06:40:00,
2013-03-29 02:45:00,41.2,32.9,30.27,West,272,3.0,5.0,72,0.00,,,0.00,Wunderground v.1.15,2013-03-29 06:45:00,
2013-03-29 02:50:00,41.2,32.9,30.27,West,271,4.0,4.0,72,0.00,,,0.00,Wunderground v.1.15,2013-03-29 06:50:00,
2013-03-29 02:55:00,41.3,33.0,30.27,West,276,5.0,6.0,72,0.00,,,0.00,Wunderground v.1.15,2013-03-29 06:55:00,
2013-03-29 03:00:00,41.3,33.0,30.27,West,276,4.0,6.0,72,0.00,,,0.00,Wunderground v.1.15,2013-03-29 07:00:00,
2013-03-29 03:05:00,41.3,32.6,30.27,West,267,6.0,7.0,71,0.00,,,0.00,Wunderground v.1.15,2013-03-29 07:05:00,
2013-03-29 03:10:00,41.4,33.0,30.27,West,267,3.0,6.0,72,0.00,,,0.00,Wunderground v.1.15,2013-03-29 07:10:00,
2013-03-29 03:15:00,41.3,33.0,30.27,WSW,254,6.0,7.0,72,0.00,,,0.00,Wunderground v.1.15,2013-03-29 07:15:00,
2013-03-29 03:20:00,41.3,32.6,30.26,West,269,6.0,6.0,71,0.00,,,0.00,Wunderground v.1.15,2013-03-29 07:20:00,
2013-03-29 03:25:00,41.2,32.5,30.26,West,271,3.0,6.0,71,0.00,,,0.00,Wunderground v.1.15,2013-03-29 07:25:00,
2013-03-29 03:30:00,40.9,32.6,30.26,WNW,290,4.0,5.0,72,0.00,,,0.00,Wunderground v.1.15,2013-03-29 07:30:00,
2013-03-29 03:35:00,40.9,32.6,30.26,WNW,284,3.0,8.0,72,0.00,,,0.00,Wunderground v.1.15,2013-03-29 07:35:00,
2013-03-29 03:40:00,40.9,32.2,30.26,WSW,248,6.0,6.0,71,0.00,,,0.00,Wunderground v.1.15,2013-03-29 07:40:00,
2013-03-29 03:45:00,40.8,32.1,30.26,West,280,7.0,8.0,71,0.00,,,0.00,Wunderground v.1.15,2013-03-29 07:45:00,
2013-03-29 03:50:00,40.7,32.0,30.26,West,273,4.0,5.0,71,0.00,,,0.00,Wunderground v.1.15,2013-03-29 07:50:00,
2013-03-29 03:55:00,40.7,32.0,30.26,West,280,3.0,8.0,71,0.00,,,0.00,Wunderground v.1.15,2013-03-29 07:55:00,
2013-03-29 04:01:00,40.5,32.2,30.26,West,281,3.0,4.0,72,0.00,,,0.00,Wunderground v.1.15,2013-03-29 08:01:00,
2013-03-29 04:06:00,40.4,32.1,30.26,West,270,2.0,6.0,72,0.00,,,0.00,Wunderground v.1.15,2013-03-29 08:06:00,
2013-03-29 04:11:00,40.4,32.1,30.26,West,273,4.0,5.0,72,0.00,,,0.00,Wunderground v.1.15,2013-03-29 08:11:00,
2013-03-29 04:16:00,40.4,32.4,30.26,West,269,6.0,7.0,73,0.00,,,0.00,Wunderground v.1.15,2013-03-29 08:16:00,
2013-03-29 04:21:00,40.4,32.4,30.26,West,271,3.0,4.0,73,0.00,,,0.00,Wunderground v.1.15,2013-03-29 08:21:00,
2013-03-29 04:26:00,40.3,32.3,30.26,West,275,3.0,5.0,73,0.00,,,0.00,Wunderground v.1.15,2013-03-29 08:26:00,
2013-03-29 04:31:00,40.2,32.2,30.26,West,276,3.0,3.0,73,0.00,,,0.00,Wunderground v.1.15,2013-03-29 08:31:00,
2013-03-29 04:36:00,40.3,32.3,30.26,West,280,4.0,6.0,73,0.00,,,0.00,Wunderground v.1.15,2013-03-29 08:36:00,
2013-03-29 04:41:00,40.2,32.2,30.26,West,281,2.0,3.0,73,0.00,,,0.00,Wunderground v.1.15,2013-03-29 08:41:00,
2013-03-29 04:46:00,40.2,32.2,30.26,West,267,2.0,5.0,73,0.00,,,0.00,Wunderground v.1.15,2013-03-29 08:46:00,
2013-03-29 04:51:00,40.3,32.3,30.26,West,279,3.0,5.0,73,0.00,,,0.00,Wunderground v.1.15,2013-03-29 08:51:00,
2013-03-29 04:56:00,40.2,31.9,30.26,WNW,284,2.0,6.0,72,0.00,,,0.00,Wunderground v.1.15,2013-03-29 08:56:00,
2013-03-29 05:01:00,40.2,32.2,30.26,West,269,4.0,4.0,73,0.00,,,0.00,Wunderground v.1.15,2013-03-29 09:01:00,
2013-03-29 05:06:00,40.2,31.9,30.26,West,273,4.0,6.0,72,0.00,,,0.00,Wunderground v.1.15,2013-03-29 09:06:00,
2013-03-29 05:11:00,40.3,32.3,30.26,West,277,3.0,5.0,73,0.00,,,0.00,Wunderground v.1.15,2013-03-29 09:11:00,
2013-03-29 05:16:00,40.3,32.0,30.26,West,262,4.0,5.0,72,0.00,,,0.00,Wunderground v.1.15,2013-03-29 09:16:00,
2013-03-29 05:21:00,40.3,32.0,30.26,West,279,3.0,5.0,72,0.00,,,0.00,Wunderground v.1.15,2013-03-29 09:21:00,
2013-03-29 05:26:00,40.2,31.9,30.26,West,265,4.0,5.0,72,0.00,,,0.00,Wunderground v.1.15,2013-03-29 09:26:00,
2013-03-29 05:31:00,40.2,31.9,30.26,West,275,5.0,5.0,72,0.00,,,0.00,Wunderground v.1.15,2013-03-29 09:31:00,
2013-03-29 05:36:00,40.1,31.4,30.26,West,277,2.0,5.0,71,0.00,,,0.00,Wunderground v.1.15,2013-03-29 09:36:00,
2013-03-29 05:41:00,40.1,31.4,30.26,West,279,3.0,4.0,71,0.00,,,0.00,Wunderground v.1.15,2013-03-29 09:41:00,
2013-03-29 05:46:00,40.1,31.4,30.26,WSW,256,4.0,6.0,71,0.00,,,0.00,Wunderground v.1.15,2013-03-29 09:46:00,
2013-03-29 05:51:00,40.0,31.4,30.26,West,281,3.0,5.0,71,0.00,,,0.00,Wunderground v.1.15,2013-03-29 09:51:00,
2013-03-29 05:56:00,40.0,31.0,30.26,West,269,2.0,5.0,70,0.00,,,0.00,Wunderground v.1.15,2013-03-29 09:56:00,
2013-03-29 06:02:00,40.0,31.0,30.26,West,274,4.0,4.0,70,0.00,,,0.00,Wunderground v.1.15,2013-03-29 10:02:00,
2013-03-29 06:07:00,40.1,31.1,30.26,West,279,2.0,6.0,70,0.00,,,0.00,Wunderground v.1.15,2013-03-29 10:07:00,
2013-03-29 06:12:00,40.1,31.1,30.26,West,273,5.0,5.0,70,0.00,,,0.00,Wunderground v.1.15,2013-03-29 10:12:00,
2013-03-29 06:17:00,40.2,31.2,30.26,WNW,287,3.0,6.0,70,0.00,,,0.00,Wunderground v.1.15,2013-03-29 10:17:00,
2013-03-29 06:22:00,40.3,30.9,30.26,West,273,2.0,4.0,69,0.00,,,0.00,Wunderground v.1.15,2013-03-29 10:22:00,
2013-03-29 06:27:00,40.2,30.8,30.26,West,279,2.0,4.0,69,0.00,,,0.00,Wunderground v.1.15,2013-03-29 10:27:00,
2013-03-29 06:32:00,40.2,30.8,30.27,West,269,3.0,4.0,69,0.00,,,0.00,Wunderground v.1.15,2013-03-29 10:32:00,
2013-03-29 06:37:00,40.4,30.7,30.27,West,273,3.0,4.0,68,0.00,,,0.00,Wunderground v.1.15,2013-03-29 10:37:00,
2013-03-29 06:42:00,40.4,30.7,30.27,West,271,3.0,7.0,68,0.00,,,0.00,Wunderground v.1.15,2013-03-29 10:42:00,
2013-03-29 06:48:00,40.4,30.7,30.27,West,261,3.0,7.0,68,0.00,,,0.00,Wunderground v.1.15,2013-03-29 10:48:00,
2013-03-29 06:53:00,40.5,30.8,30.26,West,281,2.0,4.0,68,0.00,,,0.00,Wunderground v.1.15,2013-03-29 10:53:00,
2013-03-29 06:58:00,40.5,30.8,30.26,WNW,288,3.0,5.0,68,0.00,,,0.00,Wunderground v.1.15,2013-03-29 10:58:00,
2013-03-29 07:03:00,40.4,30.7,30.26,West,268,3.0,4.0,68,0.00,,,0.00,Wunderground v.1.15,2013-03-29 11:03:00,
2013-03-29 07:08:00,40.2,30.5,30.26,West,268,0.0,4.0,68,0.00,,,0.00,Wunderground v.1.15,2013-03-29 11:08:00,
2013-03-29 07:13:00,39.8,30.5,30.26,West,268,2.0,2.0,69,0.00,,,0.00,Wunderground v.1.15,2013-03-29 11:13:00,
2013-03-29 07:18:00,39.8,30.8,30.27,West,272,4.0,4.0,70,0.00,,,0.00,Wunderground v.1.15,2013-03-29 11:18:00,
2013-03-29 07:23:00,39.8,30.8,30.27,West,268,3.0,4.0,70,0.00,,,0.00,Wunderground v.1.15,2013-03-29 11:23:00,
2013-03-29 07:28:00,39.9,30.9,30.27,West,268,3.0,4.0,70,0.00,,,0.00,Wunderground v.1.15,2013-03-29 11:28:00,
2013-03-29 07:33:00,40.1,31.1,30.27,West,268,1.0,3.0,70,0.00,,,0.00,Wunderground v.1.15,2013-03-29 11:33:00,
2013-03-29 07:38:00,40.3,31.6,30.27,West,268,1.0,3.0,71,0.00,,,0.00,Wunderground v.1.15,2013-03-29 11:38:00,
2013-03-29 07:43:00,40.7,32.0,30.28,West,268,1.0,2.0,71,0.00,,,0.00,Wunderground v.1.15,2013-03-29 11:43:00,
2013-03-29 07:48:00,41.0,32.3,30.27,West,268,3.0,3.0,71,0.00,,,0.00,Wunderground v.1.15,2013-03-29 11:48:00,
2013-03-29 07:53:00,41.4,32.3,30.27,WSW,256,5.0,7.0,70,0.00,,,0.00,Wunderground v.1.15,2013-03-29 11:53:00,
2013-03-29 07:58:00,41.8,32.4,30.28,West,273,4.0,7.0,69,0.00,,,0.00,Wunderground v.1.15,2013-03-29 11:58:00,
2013-03-29 08:03:00,42.1,32.7,30.28,West,262,3.0,7.0,69,0.00,,,0.00,Wunderground v.1.15,2013-03-29 12:03:00,
2013-03-29 08:08:00,42.5,32.7,30.28,West,275,6.0,9.0,68,0.00,,,0.00,Wunderground v.1.15,2013-03-29 12:08:00,
2013-03-29 08:13:00,43.0,33.2,30.28,West,270,3.0,7.0,68,0.00,,,0.00,Wunderground v.1.15,2013-03-29 12:13:00,
2013-03-29 08:18:00,43.3,33.1,30.28,West,259,10.0,12.0,67,0.00,,,0.00,Wunderground v.1.15,2013-03-29 12:18:00,
2013-03-29 08:23:00,43.4,32.8,30.28,West,272,3.0,10.0,66,0.00,,,0.00,Wunderground v.1.15,2013-03-29 12:23:00,
2013-03-29 08:28:00,43.6,33.0,30.28,WNW,297,9.0,13.0,66,0.00,,,0.00,Wunderground v.1.15,2013-03-29 12:28:00,
2013-03-29 08:33:00,43.6,33.4,30.28,WSW,244,5.0,9.0,67,0.00,,,0.00,Wunderground v.1.15,2013-03-29 12:33:00,
2013-03-29 08:38:00,44.0,33.0,30.28,West,275,7.0,12.0,65,0.00,,,0.00,Wunderground v.1.15,2013-03-29 12:38:00,
2013-03-29 08:44:00,44.3,33.7,30.28,WNW,301,7.0,9.0,66,0.00,,,0.00,Wunderground v.1.15,2013-03-29 12:44:00,
2013-03-29 08:49:00,44.5,33.5,30.28,WSW,246,10.0,10.0,65,0.00,,,0.00,Wunderground v.1.15,2013-03-29 12:49:00,
2013-03-29 08:54:00,45.3,34.6,30.28,West,259,4.0,8.0,66,0.00,,,0.00,Wunderground v.1.15,2013-03-29 12:54:00,
2013-03-29 08:59:00,45.2,33.7,30.28,WNW,284,9.0,12.0,64,0.00,,,0.00,Wunderground v.1.15,2013-03-29 12:59:00,
2013-03-29 09:04:00,44.8,33.7,30.28,West,261,7.0,11.0,65,0.00,,,0.00,Wunderground v.1.15,2013-03-29 13:04:00,
2013-03-29 09:09:00,45.0,33.5,30.28,West,271,4.0,11.0,64,0.00,,,0.00,Wunderground v.1.15,2013-03-29 13:09:00,
2013-03-29 09:14:00,46.0,34.9,30.28,West,263,3.0,7.0,65,0.00,,,0.00,Wunderground v.1.15,2013-03-29 13:14:00,
2013-03-29 09:19:00,46.5,34.2,30.28,West,260,7.0,8.0,62,0.00,,,0.00,Wunderground v.1.15,2013-03-29 13:19:00,
2013-03-29 09:24:00,46.5,33.8,30.28,NW,311,7.0,15.0,61,0.00,,,0.00,Wunderground v.1.15,2013-03-29 13:24:00,
2013-03-29 09:29:00,46.3,33.2,30.28,WSW,257,5.0,15.0,60,0.00,,,0.00,Wunderground v.1.15,2013-03-29 13:29:00,
2013-03-29 09:34:00,46.0,33.3,30.28,WNW,292,7.0,13.0,61,0.00,,,0.00,Wunderground v.1.15,2013-03-29 13:34:00,
2013-03-29 09:39:00,46.1,33.4,30.28,West,272,8.0,13.0,61,0.00,,,0.00,Wunderground v.1.15,2013-03-29 13:39:00,
2013-03-29 09:44:00,46.3,33.2,30.28,WNW,291,8.0,12.0,60,0.00,,,0.00,Wunderground v.1.15,2013-03-29 13:44:00,
2013-03-29 09:49:00,46.1,33.4,30.28,WNW,288,6.0,13.0,61,0.00,,,0.00,Wunderground v.1.15,2013-03-29 13:49:00,
2013-03-29 09:54:00,46.3,33.2,30.28,SW,234,5.0,9.0,60,0.00,,,0.00,Wunderground v.1.15,2013-03-29 13:54:00,
2013-03-29 09:59:00,46.7,33.5,30.28,WSW,254,5.0,9.0,60,0.00,,,0.00,Wunderground v.1.15,2013-03-29 13:59:00,
2013-03-29 10:04:00,47.2,34.4,30.28,WNW,283,4.0,9.0,61,0.00,,,0.00,Wunderground v.1.15,2013-03-29 14:04:00,
2013-03-29 10:09:00,47.2,33.6,30.28,West,274,4.0,11.0,59,0.00,,,0.00,Wunderground v.1.15,2013-03-29 14:09:00,
2013-03-29 10:14:00,47.6,33.5,30.28,West,275,5.0,12.0,58,0.00,,,0.00,Wunderground v.1.15,2013-03-29 14:14:00,
2013-03-29 10:19:00,48.1,34.0,30.28,West,281,9.0,12.0,58,0.00,,,0.00,Wunderground v.1.15,2013-03-29 14:19:00,
2013-03-29 10:24:00,47.9,32.9,30.27,NW,306,7.0,14.0,56,0.00,,,0.00,Wunderground v.1.15,2013-03-29 14:24:00,
2013-03-29 10:29:00,47.7,33.6,30.27,NW,309,6.0,15.0,58,0.00,,,0.00,Wunderground v.1.15,2013-03-29 14:29:00,
2013-03-29 10:34:00,48.6,34.0,30.27,WSW,257,7.0,11.0,57,0.00,,,0.00,Wunderground v.1.15,2013-03-29 14:34:00,
2013-03-29 10:39:00,48.2,34.5,30.27,West,266,4.0,11.0,59,0.00,,,0.00,Wunderground v.1.15,2013-03-29 14:39:00,
2013-03-29 10:44:00,48.8,34.2,30.27,WNW,301,9.0,14.0,57,0.00,,,0.00,Wunderground v.1.15,2013-03-29 14:44:00,
2013-03-29 10:49:00,48.3,33.3,30.27,WNW,300,4.0,14.0,56,0.00,,,0.00,Wunderground v.1.15,2013-03-29 14:49:00,
2013-03-29 10:54:00,48.9,33.9,30.27,West,271,9.0,14.0,56,0.00,,,0.00,Wunderground v.1.15,2013-03-29 14:54:00,
2013-03-29 10:59:00,49.0,34.0,30.27,West,275,8.0,16.0,56,0.00,,,0.00,Wunderground v.1.15,2013-03-29 14:59:00,
2013-03-29 11:04:00,49.2,34.6,30.27,West,275,13.0,14.0,57,0.00,,,0.00,Wunderground v.1.15,2013-03-29 15:04:00,
2013-03-29 11:10:00,49.7,34.6,30.27,NW,310,6.0,9.0,56,0.00,,,0.00,Wunderground v.1.15,2013-03-29 15:10:00,
2013-03-29 11:15:00,49.9,34.4,30.27,West,275,6.0,12.0,55,0.00,,,0.00,Wunderground v.1.15,2013-03-29 15:15:00,
2013-03-29 11:20:00,50.9,35.3,30.27,NW,314,7.0,7.0,55,0.00,,,0.00,Wunderground v.1.15,2013-03-29 15:20:00,
2013-03-29 11:25:00,50.3,33.8,30.27,West,278,6.0,13.0,53,0.00,,,0.00,Wunderground v.1.15,2013-03-29 15:25:00,
2013-03-29 11:30:00,49.1,33.6,30.27,WNW,293,9.0,9.0,55,0.00,,,0.00,Wunderground v.1.15,2013-03-29 15:30:00,
2013-03-29 11:35:00,50.3,35.6,30.26,NW,316,5.0,10.0,57,0.00,,,0.00,Wunderground v.1.15,2013-03-29 15:35:00,
2013-03-29 11:40:00,50.9,33.9,30.26,West,271,8.0,13.0,52,0.00,,,0.00,Wunderground v.1.15,2013-03-29 15:40:00,
2013-03-29 11:45:00,50.1,34.5,30.26,WNW,292,9.0,13.0,55,0.00,,,0.00,Wunderground v.1.15,2013-03-29 15:45:00,
2013-03-29 11:50:00,51.0,35.8,30.26,WNW,288,8.0,8.0,56,0.00,,,0.00,Wunderground v.1.15,2013-03-29 15:50:00,
2013-03-29 11:55:00,50.9,34.4,30.26,WNW,297,7.0,13.0,53,0.00,,,0.00,Wunderground v.1.15,2013-03-29 15:55:00,
2013-03-29 12:00:00,51.1,34.1,30.26,WNW,298,7.0,10.0,52,0.00,,,0.00,Wunderground v.1.15,2013-03-29 16:00:00,
2013-03-29 12:06:00,50.6,34.6,30.26,West,279,4.0,13.0,54,0.00,,,0.00,Wunderground v.1.15,2013-03-29 16:06:00,
2013-03-29 12:11:00,50.9,34.4,30.26,West,273,8.0,12.0,53,0.00,,,0.00,Wunderground v.1.15,2013-03-29 16:11:00,
2013-03-29 12:16:00,51.9,34.8,30.25,West,259,9.0,12.0,52,0.00,,,0.00,Wunderground v.1.15,2013-03-29 16:16:00,
2013-03-29 12:21:00,52.3,34.2,30.25,West,271,7.0,9.0,50,0.00,,,0.00,Wunderground v.1.15,2013-03-29 16:21:00,
2013-03-29 12:26:00,52.2,34.6,30.25,NW,315,5.0,12.0,51,0.00,,,0.00,Wunderground v.1.15,2013-03-29 16:26:00,
2013-03-29 12:31:00,53.0,34.8,30.25,WSW,254,11.0,17.0,50,0.00,,,0.00,Wunderground v.1.15,2013-03-29 16:31:00,
2013-03-29 12:36:00,52.1,33.0,30.25,West,270,16.0,17.0,48,0.00,,,0.00,Wunderground v.1.15,2013-03-29 16:36:00,
2013-03-29 12:41:00,51.6,33.6,30.25,WSW,258,6.0,10.0,50,0.00,,,0.00,Wunderground v.1.15,2013-03-29 16:41:00,
2013-03-29 12:46:00,51.6,34.5,30.24,NNW,330,2.0,10.0,52,0.00,,,0.00,Wunderground v.1.15,2013-03-29 16:46:00,
2013-03-29 12:51:00,53.4,36.7,30.24,WNW,300,2.0,6.0,53,0.00,,,0.00,Wunderground v.1.15,2013-03-29 16:51:00,
2013-03-29 12:56:00,54.0,33.7,30.24,WNW,282,6.0,13.0,46,0.00,,,0.00,Wunderground v.1.15,2013-03-29 16:56:00,
2013-03-29 13:01:00,54.1,35.3,30.23,WNW,294,7.0,7.0,49,0.00,,,0.00,Wunderground v.1.15,2013-03-29 17:01:00,
2013-03-29 13:06:00,54.4,34.6,30.23,West,271,10.0,12.0,47,0.00,,,0.00,Wunderground v.1.15,2013-03-29 17:06:00,
2013-03-29 13:11:00,53.6,33.3,30.23,North,9,4.0,8.0,46,0.00,,,0.00,Wunderground v.1.15,2013-03-29 17:11:00,
2013-03-29 13:16:00,55.3,34.3,30.23,WSW,252,7.0,12.0,45,0.00,,,0.00,Wunderground v.1.15,2013-03-29 17:16:00,
2013-03-29 13:21:00,55.1,33.6,30.23,West,266,4.0,6.0,44,0.00,,,0.00,Wunderground v.1.15,2013-03-29 17:21:00,
2013-03-29 13:27:00,55.3,32.6,30.22,West,265,12.0,14.0,42,0.00,,,0.00,Wunderground v.1.15,2013-03-29 17:27:00,
2013-03-29 13:32:00,55.9,34.8,30.22,WNW,286,3.0,9.0,45,0.00,,,0.00,Wunderground v.1.15,2013-03-29 17:32:00,
2013-03-29 13:37:00,55.7,34.1,30.22,West,278,5.0,13.0,44,0.00,,,0.00,Wunderground v.1.15,2013-03-29 17:37:00,
2013-03-29 13:42:00,54.6,33.1,30.22,West,279,4.0,9.0,44,0.00,,,0.00,Wunderground v.1.15,2013-03-29 17:42:00,
2013-03-29 13:47:00,54.5,30.6,30.22,West,271,9.0,13.0,40,0.00,,,0.00,Wunderground v.1.15,2013-03-29 17:47:00,
2013-03-29 13:52:00,55.5,33.3,30.22,West,273,9.0,14.0,43,0.00,,,0.00,Wunderground v.1.15,2013-03-29 17:52:00,
2013-03-29 13:57:00,56.3,32.9,30.21,West,270,10.0,14.0,41,0.00,,,0.00,Wunderground v.1.15,2013-03-29 17:57:00,
2013-03-29 14:02:00,56.0,33.2,30.21,NW,313,9.0,12.0,42,0.00,,,0.00,Wunderground v.1.15,2013-03-29 18:02:00,
2013-03-29 14:07:00,54.9,30.4,30.21,West,259,9.0,15.0,39,0.00,,,0.00,Wunderground v.1.15,2013-03-29 18:07:00,
2013-03-29 14:12:00,55.8,32.4,30.21,NW,310,12.0,13.0,41,0.00,,,0.00,Wunderground v.1.15,2013-03-29 18:12:00,
2013-03-29 14:17:00,55.6,30.4,30.21,West,261,4.0,13.0,38,0.00,,,0.00,Wunderground v.1.15,2013-03-29 18:17:00,
2013-03-29 14:22:00,56.5,31.8,30.21,WNW,289,10.0,13.0,39,0.00,,,0.00,Wunderground v.1.15,2013-03-29 18:22:00,
2013-03-29 14:27:00,54.8,30.3,30.21,WNW,282,6.0,14.0,39,0.00,,,0.00,Wunderground v.1.15,2013-03-29 18:27:00,
2013-03-29 14:32:00,53.8,30.0,30.21,West,262,4.0,11.0,40,0.00,,,0.00,Wunderground v.1.15,2013-03-29 18:32:00,
2013-03-29 14:37:00,53.5,31.0,30.21,West,271,5.0,11.0,42,0.00,,,0.00,Wunderground v.1.15,2013-03-29 18:37:00,
2013-03-29 14:42:00,54.4,32.9,30.20,NNW,330,7.0,9.0,44,0.00,,,0.00,Wunderground v.1.15,2013-03-29 18:42:00,
2013-03-29 14:47:00,54.3,32.3,30.21,West,268,7.0,10.0,43,0.00,,,0.00,Wunderground v.1.15,2013-03-29 18:47:00,
2013-03-29 14:52:00,53.4,30.9,30.20,WNW,290,8.0,12.0,42,0.00,,,0.00,Wunderground v.1.15,2013-03-29 18:52:00,
2013-03-29 14:57:00,53.3,30.2,30.20,WSW,255,2.0,12.0,41,0.00,,,0.00,Wunderground v.1.15,2013-03-29 18:57:00,
2013-03-29 15:02:00,53.9,31.9,30.20,WNW,286,11.0,13.0,43,0.00,,,0.00,Wunderground v.1.15,2013-03-29 19:02:00,
2013-03-29 15:07:00,54.7,30.8,30.20,WNW,296,8.0,13.0,40,0.00,,,0.00,Wunderground v.1.15,2013-03-29 19:07:00,
2013-03-29 15:12:00,54.4,29.9,30.20,NW,308,11.0,14.0,39,0.00,,,0.00,Wunderground v.1.15,2013-03-29 19:12:00,
2013-03-29 15:18:00,54.1,30.3,30.20,West,269,12.0,14.0,40,0.00,,,0.00,Wunderground v.1.15,2013-03-29 19:18:00,
2013-03-29 15:23:00,54.2,29.8,30.20,West,276,9.0,14.0,39,0.00,,,0.00,Wunderground v.1.15,2013-03-29 19:23:00,
2013-03-29 15:28:00,54.7,32.0,30.19,WSW,251,7.0,16.0,42,0.00,,,0.00,Wunderground v.1.15,2013-03-29 19:28:00,
2013-03-29 15:33:00,54.1,30.9,30.19,WNW,300,4.0,15.0,41,0.00,,,0.00,Wunderground v.1.15,2013-03-29 19:33:00,
2013-03-29 15:38:00,54.6,30.7,30.19,West,261,11.0,15.0,40,0.00,,,0.00,Wunderground v.1.15,2013-03-29 19:38:00,
2013-03-29 15:43:00,54.9,31.0,30.19,WNW,285,4.0,13.0,40,0.00,,,0.00,Wunderground v.1.15,2013-03-29 19:43:00,
2013-03-29 15:48:00,55.1,31.8,30.19,West,262,9.0,13.0,41,0.00,,,0.00,Wunderground v.1.15,2013-03-29 19:48:00,
2013-03-29 15:53:00,53.9,30.7,30.19,SW,232,6.0,11.0,41,0.00,,,0.00,Wunderground v.1.15,2013-03-29 19:53:00,
2013-03-29 15:58:00,53.1,31.2,30.18,West,276,4.0,13.0,43,0.00,,,0.00,Wunderground v.1.15,2013-03-29 19:58:00,
2013-03-29 16:03:00,53.2,31.3,30.18,WNW,294,4.0,8.0,43,0.00,,,0.00,Wunderground v.1.15,2013-03-29 20:03:00,
2013-03-29 16:08:00,52.9,31.0,30.18,WNW,287,2.0,10.0,43,0.00,,,0.00,Wunderground v.1.15,2013-03-29 20:08:00,
2013-03-29 16:13:00,53.9,32.5,30.18,West,275,6.0,13.0,44,0.00,,,0.00,Wunderground v.1.15,2013-03-29 20:13:00,
2013-03-29 16:18:00,54.0,32.0,30.18,NW,314,6.0,13.0,43,0.00,,,0.00,Wunderground v.1.15,2013-03-29 20:18:00,
2013-03-29 16:23:00,53.3,31.4,30.18,WNW,300,6.0,9.0,43,0.00,,,0.00,Wunderground v.1.15,2013-03-29 20:23:00,
2013-03-29 16:28:00,53.1,31.2,30.18,WNW,300,9.0,12.0,43,0.00,,,0.00,Wunderground v.1.15,2013-03-29 20:28:00,
2013-03-29 16:33:00,53.2,31.8,30.18,WSW,251,8.0,12.0,44,0.00,,,0.00,Wunderground v.1.15,2013-03-29 20:33:00,
2013-03-29 16:38:00,53.1,31.7,30.18,West,281,5.0,12.0,44,0.00,,,0.00,Wunderground v.1.15,2013-03-29 20:38:00,
2013-03-29 16:43:00,54.1,32.6,30.18,NW,304,8.0,11.0,44,0.00,,,0.00,Wunderground v.1.15,2013-03-29 20:43:00,
2013-03-29 16:48:00,54.5,31.9,30.18,West,276,5.0,12.0,42,0.00,,,0.00,Wunderground v.1.15,2013-03-29 20:48:00,
2013-03-29 16:53:00,54.4,32.3,30.18,WNW,287,8.0,11.0,43,0.00,,,0.00,Wunderground v.1.15,2013-03-29 20:53:00,
2013-03-29 16:58:00,54.0,31.4,30.17,West,270,6.0,11.0,42,0.00,,,0.00,Wunderground v.1.15,2013-03-29 20:58:00,
2013-03-29 17:03:00,54.3,32.8,30.17,West,268,3.0,9.0,44,0.00,,,0.00,Wunderground v.1.15,2013-03-29 21:03:00,
2013-03-29 17:08:00,54.4,31.8,30.17,West,269,7.0,10.0,42,0.00,,,0.00,Wunderground v.1.15,2013-03-29 21:08:00,
2013-03-29 17:13:00,53.4,30.9,30.17,West,261,5.0,10.0,42,0.00,,,0.00,Wunderground v.1.15,2013-03-29 21:13:00,
2013-03-29 17:18:00,53.5,31.5,30.17,West,274,5.0,11.0,43,0.00,,,0.00,Wunderground v.1.15,2013-03-29 21:18:00,
2013-03-29 17:23:00,53.4,29.7,30.17,WSW,248,7.0,13.0,40,0.00,,,0.00,Wunderground v.1.15,2013-03-29 21:23:00,
2013-03-29 17:29:00,53.4,30.3,30.17,WNW,294,4.0,13.0,41,0.00,,,0.00,Wunderground v.1.15,2013-03-29 21:29:00,
2013-03-29 17:34:00,53.3,30.8,30.17,NW,311,9.0,11.0,42,0.00,,,0.00,Wunderground v.1.15,2013-03-29 21:34:00,
2013-03-29 17:39:00,53.4,31.4,30.17,West,279,3.0,11.0,43,0.00,,,0.00,Wunderground v.1.15,2013-03-29 21:39:00,
2013-03-29 17:44:00,53.4,31.4,30.17,WNW,294,3.0,10.0,43,0.00,,,0.00,Wunderground v.1.15,2013-03-29 21:44:00,
2013-03-29 17:49:00,53.8,31.2,30.17,WNW,284,6.0,10.0,42,0.00,,,0.00,Wunderground v.1.15,2013-03-29 21:49:00,
2013-03-29 17:54:00,53.4,30.9,30.17,NW,304,5.0,11.0,42,0.00,,,0.00,Wunderground v.1.15,2013-03-29 21:54:00,
2013-03-29 17:59:00,53.4,30.9,30.17,West,277,6.0,11.0,42,0.00,,,0.00,Wunderground v.1.15,2013-03-29 21:59:00,
2013-03-29 18:04:00,52.8,30.3,30.17,WNW,290,6.0,8.0,42,0.00,,,0.00,Wunderground v.1.15,2013-03-29 22:04:00,
2013-03-29 18:09:00,52.6,31.3,30.17,West,278,5.0,8.0,44,0.00,,,0.00,Wunderground v.1.15,2013-03-29 22:09:00,
2013-03-29 18:14:00,52.7,30.8,30.17,WNW,286,3.0,6.0,43,0.00,,,0.00,Wunderground v.1.15,2013-03-29 22:14:00,
2013-03-29 18:19:00,52.7,30.8,30.17,WSW,246,3.0,6.0,43,0.00,,,0.00,Wunderground v.1.15,2013-03-29 22:19:00,
2013-03-29 18:24:00,52.6,30.7,30.17,WSW,257,4.0,9.0,43,0.00,,,0.00,Wunderground v.1.15,2013-03-29 22:24:00,
2013-03-29 18:29:00,52.2,30.9,30.17,West,281,8.0,9.0,44,0.00,,,0.00,Wunderground v.1.15,2013-03-29 22:29:00,
2013-03-29 18:34:00,51.9,30.6,30.18,WNW,302,5.0,7.0,44,0.00,,,0.00,Wunderground v.1.15,2013-03-29 22:34:00,
2013-03-29 18:39:00,52.1,30.3,30.18,West,281,4.0,7.0,43,0.00,,,0.00,Wunderground v.1.15,2013-03-29 22:39:00,
2013-03-29 18:44:00,52.2,30.4,30.18,West,280,3.0,4.0,43,0.00,,,0.00,Wunderground v.1.15,2013-03-29 22:44:00,
2013-03-29 18:49:00,52.2,30.4,30.18,WNW,294,3.0,4.0,43,0.00,,,0.00,Wunderground v.1.15,2013-03-29 22:49:00,
2013-03-29 18:54:00,51.9,30.6,30.18,West,273,3.0,4.0,44,0.00,,,0.00,Wunderground v.1.15,2013-03-29 22:54:00,
2013-03-29 18:59:00,51.9,29.5,30.18,West,264,4.0,7.0,42,0.00,,,0.00,Wunderground v.1.15,2013-03-29 22:59:00,
2013-03-29 19:04:00,51.7,29.3,30.18,WNW,286,4.0,7.0,42,0.00,,,0.00,Wunderground v.1.15,2013-03-29 23:04:00,
2013-03-29 19:09:00,51.7,28.7,30.18,West,270,3.0,7.0,41,0.00,,,0.00,Wunderground v.1.15,2013-03-29 23:09:00,
2013-03-29 19:14:00,51.5,29.1,30.18,West,270,2.0,4.0,42,0.00,,,0.00,Wunderground v.1.15,2013-03-29 23:14:00,
2013-03-29 19:19:00,51.1,29.4,30.18,West,270,2.0,4.0,43,0.00,,,0.00,Wunderground v.1.15,2013-03-29 23:19:00,
2013-03-29 19:24:00,51.0,28.7,30.18,West,271,2.0,4.0,42,0.00,,,0.00,Wunderground v.1.15,2013-03-29 23:24:00,
2013-03-29 19:29:00,50.8,28.5,30.18,West,273,3.0,4.0,42,0.00,,,0.00,Wunderground v.1.15,2013-03-29 23:29:00,
2013-03-29 19:34:00,50.8,28.5,30.18,West,271,2.0,4.0,42,0.00,,,0.00,Wunderground v.1.15,2013-03-29 23:34:00,
2013-03-29 19:39:00,50.9,28.0,30.18,West,271,1.0,4.0,41,0.00,,,0.00,Wunderground v.1.15,2013-03-29 23:39:00,
2013-03-29 19:44:00,50.9,28.0,30.19,West,271,1.0,3.0,41,0.00,,,0.00,Wunderground v.1.15,2013-03-29 23:44:00,
2013-03-29 19:49:00,50.7,28.4,30.19,West,271,1.0,3.0,42,0.00,,,0.00,Wunderground v.1.15,2013-03-29 23:49:00,
2013-03-29 19:54:00,50.3,28.6,30.19,West,271,3.0,3.0,43,0.00,,,0.00,Wunderground v.1.15,2013-03-29 23:54:00,
2013-03-29 19:59:00,50.2,28.0,30.19,West,269,2.0,5.0,42,0.00,,,0.00,Wunderground v.1.15,2013-03-29 23:59:00,
2013-03-29 20:04:00,50.3,28.1,30.19,West,269,1.0,4.0,42,0.00,,,0.00,Wunderground v.1.15,2013-03-30 00:04:00,
2013-03-29 20:09:00,49.9,27.7,30.19,West,269,1.0,4.0,42,0.00,,,0.00,Wunderground v.1.15,2013-03-30 00:09:00,
2013-03-29 20:14:00,49.6,28.0,30.19,West,269,1.0,2.0,43,0.00,,,0.00,Wunderground v.1.15,2013-03-30 00:14:00,
2013-03-29 20:19:00,49.4,27.8,30.19,West,269,1.0,2.0,43,0.00,,,0.00,Wunderground v.1.15,2013-03-30 00:19:00,
2013-03-29 20:24:00,49.4,27.8,30.19,West,269,1.0,2.0,43,0.00,,,0.00,Wunderground v.1.15,2013-03-30 00:24:00,
2013-03-29 20:29:00,49.3,27.7,30.19,West,269,0.0,2.0,43,0.00,,,0.00,Wunderground v.1.15,2013-03-30 00:29:00,
2013-03-29 20:34:00,49.6,27.4,30.19,West,269,0.0,1.0,42,0.00,,,0.00,Wunderground v.1.15,2013-03-30 00:34:00,
2013-03-29 20:39:00,49.7,27.5,30.19,West,269,0.0,1.0,42,0.00,,,0.00,Wunderground v.1.15,2013-03-30 00:39:00,
2013-03-29 20:44:00,49.7,27.5,30.20,West,269,0.0,0.0,42,0.00,,,0.00,Wunderground v.1.15,2013-03-30 00:44:00,
2013-03-29 20:49:00,49.5,27.3,30.20,West,269,0.0,0.0,42,0.00,,,0.00,Wunderground v.1.15,2013-03-30 00:49:00,
2013-03-29 20:54:00,49.2,27.1,30.20,West,269,1.0,2.0,42,0.00,,,0.00,Wunderground v.1.15,2013-03-30 00:54:00,
2013-03-29 20:59:00,49.2,27.6,30.20,West,269,2.0,2.0,43,0.00,,,0.00,Wunderground v.1.15,2013-03-30 00:59:00,
2013-03-29 21:04:00,48.9,27.9,30.20,West,269,1.0,2.0,44,0.00,,,0.00,Wunderground v.1.15,2013-03-30 01:04:00,
2013-03-29 21:09:00,48.6,27.6,30.20,West,269,1.0,1.0,44,0.00,,,0.00,Wunderground v.1.15,2013-03-30 01:09:00,
2013-03-29 21:15:00,48.8,27.3,30.21,West,269,1.0,2.0,43,0.00,,,0.00,Wunderground v.1.15,2013-03-30 01:15:00,
2013-03-29 21:20:00,48.8,27.3,30.21,West,269,0.0,1.0,43,0.00,,,0.00,Wunderground v.1.15,2013-03-30 01:20:00,
2013-03-29 21:25:00,48.7,27.2,30.21,West,269,1.0,2.0,43,0.00,,,0.00,Wunderground v.1.15,2013-03-30 01:25:00,
2013-03-29 21:30:00,48.7,27.2,30.21,West,269,1.0,1.0,43,0.00,,,0.00,Wunderground v.1.15,2013-03-30 01:30:00,
2013-03-29 21:35:00,48.5,27.6,30.21,West,269,1.0,2.0,44,0.00,,,0.00,Wunderground v.1.15,2013-03-30 01:35:00,
2013-03-29 21:40:00,48.5,27.6,30.21,West,269,2.0,2.0,44,0.00,,,0.00,Wunderground v.1.15,2013-03-30 01:40:00,
2013-03-29 21:45:00,48.7,27.7,30.22,West,269,2.0,3.0,44,0.00,,,0.00,Wunderground v.1.15,2013-03-30 01:45:00,
2013-03-29 21:50:00,48.6,28.2,30.22,West,269,2.0,2.0,45,0.00,,,0.00,Wunderground v.1.15,2013-03-30 01:50:00,
2013-03-29 21:55:00,48.0,28.2,30.22,West,269,2.0,3.0,46,0.00,,,0.00,Wunderground v.1.15,2013-03-30 01:55:00,
2013-03-29 22:00:00,47.3,28.1,30.22,West,269,2.0,2.0,47,0.00,,,0.00,Wunderground v.1.15,2013-03-30 02:00:00,
2013-03-29 22:05:00,47.1,27.9,30.22,West,269,1.0,3.0,47,0.00,,,0.00,Wunderground v.1.15,2013-03-30 02:05:00,
2013-03-29 22:10:00,47.2,27.5,30.22,West,269,0.0,1.0,46,0.00,,,0.00,Wunderground v.1.15,2013-03-30 02:10:00,
2013-03-29 22:15:00,47.5,27.7,30.22,West,269,2.0,2.0,46,0.00,,,0.00,Wunderground v.1.15,2013-03-30 02:15:00,
2013-03-29 22:20:00,48.0,28.2,30.22,West,269,1.0,2.0,46,0.00,,,0.00,Wunderground v.1.15,2013-03-30 02:20:00,
2013-03-29 22:25:00,48.3,27.9,30.22,West,269,1.0,2.0,45,0.00,,,0.00,Wunderground v.1.15,2013-03-30 02:25:00,
2013-03-29 22:30:00,47.8,29.0,30.22,West,269,1.0,2.0,48,0.00,,,0.00,Wunderground v.1.15,2013-03-30 02:30:00,
2013-03-29 22:36:00,47.5,28.8,30.22,West,269,1.0,2.0,48,0.00,,,0.00,Wunderground v.1.15,2013-03-30 02:36:00,
2013-03-29 22:41:00,47.4,28.2,30.22,West,269,1.0,2.0,47,0.00,,,0.00,Wunderground v.1.15,2013-03-30 02:41:00,
2013-03-29 22:46:00,47.5,27.7,30.22,West,269,1.0,2.0,46,0.00,,,0.00,Wunderground v.1.15,2013-03-30 02:46:00,
2013-03-29 22:51:00,48.0,27.6,30.22,West,269,0.0,1.0,45,0.00,,,0.00,Wunderground v.1.15,2013-03-30 02:51:00,
2013-03-29 22:56:00,47.7,27.4,30.22,West,269,1.0,2.0,45,0.00,,,0.00,Wunderground v.1.15,2013-03-30 02:56:00,
2013-03-29 23:01:00,47.8,27.5,30.22,West,269,0.0,1.0,45,0.00,,,0.00,Wunderground v.1.15,2013-03-30 03:01:00,
2013-03-29 23:06:00,48.2,27.3,30.22,West,269,0.0,1.0,44,0.00,,,0.00,Wunderground v.1.15,2013-03-30 03:06:00,
2013-03-29 23:12:00,47.8,28.0,30.22,West,269,0.0,0.0,46,0.00,,,0.00,Wunderground v.1.15,2013-03-30 03:12:00,
2013-03-29 23:17:00,47.2,29.0,30.23,West,269,2.0,3.0,49,0.00,,,0.00,Wunderground v.1.15,2013-03-30 03:17:00,
2013-03-29 23:22:00,46.8,29.1,30.23,West,269,1.0,3.0,50,0.00,,,0.00,Wunderground v.1.15,2013-03-30 03:22:00,
2013-03-29 23:27:00,46.9,28.7,30.23,West,269,1.0,3.0,49,0.00,,,0.00,Wunderground v.1.15,2013-03-30 03:27:00,
2013-03-29 23:32:00,46.9,28.7,30.23,West,269,0.0,1.0,49,0.00,,,0.00,Wunderground v.1.15,2013-03-30 03:32:00,
2013-03-29 23:37:00,46.9,29.2,30.23,West,269,0.0,1.0,50,0.00,,,0.00,Wunderground v.1.15,2013-03-30 03:37:00,
2013-03-29 23:42:00,46.9,29.2,30.22,West,269,0.0,0.0,50,0.00,,,0.00,Wunderground v.1.15,2013-03-30 03:42:00,
2013-03-29 23:47:00,46.6,28.9,30.22,West,269,0.0,2.0,50,0.00,,,0.00,Wunderground v.1.15,2013-03-30 03:47:00,
2013-03-29 23:52:00,46.4,28.8,30.22,West,269,0.0,1.0,50,0.00,,,0.00,Wunderground v.1.15,2013-03-30 03:52:00,
2013-03-29 23:57:00,46.1,29.4,30.22,West,269,1.0,2.0,52,0.00,,,0.00,Wunderground v.1.15,2013-03-30 03:57:00,